Time,TemperatureF,DewpointF,PressureIn,WindDirection,WindDirectionDegrees,WindSpeedMPH,WindSpeedGustMPH,Humidity,HourlyPrecipIn,Conditions,Clouds,dailyrainin,SoftwareType,DateUTC
2013-10-17 00:13:00,46.0,38.0,30.01,SE,130,0.0,1.0,73,0.00,,,0.00,,2013-10-17 05:13:00,
2013-10-17 00:23:00,45.0,38.0,30.01,SE,130,1.0,2.0,75,0.00,,,0.00,,2013-10-17 05:23:00,
2013-10-17 00:42:00,45.0,38.0,30.01,SE,130,0.0,2.0,75,0.00,,,0.00,,2013-10-17 05:42:00,
2013-10-17 00:52:00,44.0,37.0,30.01,SE,130,1.0,2.0,77,0.00,,,0.00,,2013-10-17 05:52:00,
2013-10-17 01:13:00,44.0,37.0,30.01,SE,130,1.0,3.0,77,0.00,,,0.00,,2013-10-17 06:13:00,
2013-10-17 01:22:00,44.0,38.0,30.00,SE,130,1.0,2.0,79,0.00,,,0.00,,2013-10-17 06:22:00,
2013-10-17 01:42:00,44.0,38.0,30.00,SE,130,2.0,2.0,79,0.00,,,0.00,,2013-10-17 06:42:00,
2013-10-17 01:52:00,44.0,38.0,30.00,SE,130,0.0,2.0,79,0.00,,,0.00,,2013-10-17 06:52:00,
2013-10-17 02:11:00,43.0,37.0,29.99,SE,130,0.0,2.0,79,0.00,,,0.00,,2013-10-17 07:11:00,
2013-10-17 02:22:00,43.0,38.0,29.99,SE,130,0.0,1.0,81,0.00,,,0.00,,2013-10-17 07:22:00,
2013-10-17 02:43:00,43.0,37.0,29.99,SE,130,0.0,2.0,80,0.00,,,0.00,,2013-10-17 07:43:00,
2013-10-17 02:52:00,42.0,37.0,29.99,SE,130,0.0,1.0,82,0.00,,,0.00,,2013-10-17 07:52:00,
2013-10-17 03:11:00,41.0,37.0,29.99,SE,130,0.0,1.0,84,0.00,,,0.00,,2013-10-17 08:11:00,
2013-10-17 03:21:00,41.0,37.0,29.99,SE,130,1.0,2.0,84,0.00,,,0.00,,2013-10-17 08:21:00,
2013-10-17 03:42:00,41.0,36.0,29.98,SE,130,2.0,2.0,83,0.00,,,0.00,,2013-10-17 08:42:00,
2013-10-17 03:52:00,41.0,36.0,29.98,SW,221,1.0,4.0,83,0.00,,,0.00,,2013-10-17 08:52:00,
2013-10-17 04:11:00,41.0,36.0,29.98,SW,221,2.0,2.0,83,0.00,,,0.00,,2013-10-17 09:11:00,
2013-10-17 04:22:00,41.0,36.0,29.98,SSW,198,2.0,3.0,83,0.00,,,0.00,,2013-10-17 09:22:00,
2013-10-17 04:43:00,41.0,36.0,29.98,South,191,2.0,4.0,83,0.00,,,0.00,,2013-10-17 09:43:00,
2013-10-17 04:53:00,40.0,36.0,29.97,South,182,1.0,5.0,84,0.00,,,0.00,,2013-10-17 09:53:00,
2013-10-17 05:12:00,40.0,36.0,29.97,South,178,2.0,4.0,84,0.00,,,0.00,,2013-10-17 10:12:00,
2013-10-17 05:23:00,40.0,36.0,29.98,South,173,3.0,4.0,84,0.00,,,0.00,,2013-10-17 10:23:00,
2013-10-17 05:42:00,40.0,36.0,29.98,South,174,2.0,2.0,84,0.00,,,0.00,,2013-10-17 10:42:00,
2013-10-17 05:53:00,39.0,35.0,29.97,South,173,2.0,3.0,84,0.00,,,0.00,,2013-10-17 10:53:00,
2013-10-17 06:12:00,39.0,35.0,29.97,South,174,2.0,4.0,85,0.00,,,0.00,,2013-10-17 11:12:00,
2013-10-17 06:22:00,39.0,35.0,29.97,South,174,2.0,4.0,86,0.00,,,0.00,,2013-10-17 11:22:00,
2013-10-17 06:42:00,39.0,35.0,29.97,South,182,2.0,5.0,86,0.00,,,0.00,,2013-10-17 11:42:00,
2013-10-17 06:52:00,39.0,35.0,29.97,SSE,167,2.0,5.0,86,0.00,,,0.00,,2013-10-17 11:52:00,
2013-10-17 07:12:00,39.0,35.0,29.97,SSE,165,2.0,5.0,86,0.00,,,0.00,,2013-10-17 12:12:00,
2013-10-17 07:22:00,38.0,34.0,29.97,SSE,166,2.0,4.0,87,0.00,,,0.00,,2013-10-17 12:22:00,
2013-10-17 07:42:00,38.0,34.0,29.97,South,173,1.0,3.0,87,0.00,,,0.00,,2013-10-17 12:42:00,
2013-10-17 07:52:00,39.0,35.0,29.97,South,173,2.0,3.0,87,0.00,,,0.00,,2013-10-17 12:52:00,
2013-10-17 08:11:00,38.0,34.0,29.97,South,173,2.0,3.0,86,0.00,,,0.00,,2013-10-17 13:11:00,
2013-10-17 08:22:00,38.0,34.0,29.97,South,173,3.0,3.0,87,0.00,,,0.00,,2013-10-17 13:22:00,
2013-10-17 08:42:00,39.0,36.0,29.98,South,173,0.0,3.0,88,0.00,,,0.00,,2013-10-17 13:42:00,
2013-10-17 08:52:00,39.0,36.0,29.97,South,173,1.0,4.0,88,0.00,,,0.00,,2013-10-17 13:52:00,
2013-10-17 09:11:00,40.0,36.0,29.98,South,172,3.0,5.0,87,0.00,,,0.00,,2013-10-17 14:11:00,
2013-10-17 09:21:00,42.0,38.0,29.98,SSE,149,1.0,4.0,86,0.00,,,0.00,,2013-10-17 14:21:00,
2013-10-17 09:42:00,43.0,39.0,29.98,SSW,206,0.0,2.0,85,0.00,,,0.00,,2013-10-17 14:42:00,
2013-10-17 09:52:00,45.0,40.0,29.98,NW,323,0.0,5.0,84,0.00,,,0.00,,2013-10-17 14:52:00,
2013-10-17 10:11:00,47.0,42.0,29.98,NNE,17,0.0,5.0,82,0.00,,,0.00,,2013-10-17 15:11:00,
2013-10-17 10:22:00,49.0,42.0,29.99,West,272,1.0,5.0,77,0.00,,,0.00,,2013-10-17 15:22:00,
2013-10-17 10:43:00,50.0,41.0,29.99,SW,223,2.0,10.0,72,0.00,,,0.00,,2013-10-17 15:43:00,
2013-10-17 10:53:00,52.0,43.0,29.99,NW,315,1.0,5.0,70,0.00,,,0.00,,2013-10-17 15:53:00,
2013-10-17 11:12:00,53.0,42.0,29.99,WNW,282,2.0,10.0,67,0.00,,,0.00,,2013-10-17 16:12:00,
2013-10-17 11:23:00,55.0,43.0,29.99,WNW,300,0.0,9.0,64,0.00,,,0.00,,2013-10-17 16:23:00,
2013-10-17 11:42:00,56.0,42.0,29.99,West,275,1.0,5.0,60,0.00,,,0.00,,2013-10-17 16:42:00,
2013-10-17 11:53:00,57.0,42.0,29.99,North,355,1.0,7.0,58,0.00,,,0.00,,2013-10-17 16:53:00,
2013-10-17 12:12:00,59.0,43.0,29.98,NW,326,0.0,5.0,55,0.00,,,0.00,,2013-10-17 17:12:00,
2013-10-17 12:22:00,60.0,42.0,29.98,North,5,1.0,7.0,51,0.00,,,0.00,,2013-10-17 17:22:00,
2013-10-17 12:42:00,61.0,42.0,29.98,NW,323,0.0,5.0,49,0.00,,,0.00,,2013-10-17 17:42:00,
2013-10-17 12:53:00,63.0,42.0,29.98,West,271,1.0,4.0,46,0.00,,,0.00,,2013-10-17 17:53:00,
2013-10-17 13:11:00,63.0,41.0,29.97,NE,36,1.0,7.0,44,0.00,,,0.00,,2013-10-17 18:11:00,
2013-10-17 13:21:00,64.0,40.0,29.96,NNE,12,1.0,6.0,42,0.00,,,0.00,,2013-10-17 18:21:00,
2013-10-17 13:42:00,64.0,41.0,29.96,NW,304,1.0,8.0,43,0.00,,,0.00,,2013-10-17 18:42:00,
2013-10-17 13:52:00,65.0,41.0,29.96,NNW,342,3.0,10.0,41,0.00,,,0.00,,2013-10-17 18:52:00,
2013-10-17 14:11:00,65.0,42.0,29.96,NW,323,1.0,6.0,43,0.00,,,0.00,,2013-10-17 19:11:00,
2013-10-17 14:21:00,64.0,40.0,29.95,North,5,0.0,7.0,41,0.00,,,0.00,,2013-10-17 19:21:00,
2013-10-17 14:42:00,65.0,40.0,29.95,NNW,348,3.0,10.0,40,0.00,,,0.00,,2013-10-17 19:42:00,
2013-10-17 14:53:00,66.0,38.0,29.94,NNW,334,4.0,14.0,35,0.00,,,0.00,,2013-10-17 19:53:00,
2013-10-17 15:11:00,66.0,38.0,29.94,NNW,329,4.0,15.0,35,0.00,,,0.00,,2013-10-17 20:11:00,
2013-10-17 15:22:00,66.0,37.0,29.94,NNE,16,6.0,13.0,34,0.00,,,0.00,,2013-10-17 20:22:00,
2013-10-17 15:42:00,66.0,38.0,29.94,North,5,4.0,11.0,35,0.00,,,0.00,,2013-10-17 20:42:00,
2013-10-17 15:52:00,65.0,37.0,29.93,North,355,4.0,9.0,35,0.00,,,0.00,,2013-10-17 20:52:00,
2013-10-17 16:11:00,67.0,37.0,29.95,NNE,17,5.0,13.0,33,0.00,,,0.00,,2013-10-17 21:11:00,
2013-10-17 16:22:00,68.0,38.0,29.95,NNW,344,3.0,12.0,33,0.00,,,0.00,,2013-10-17 21:22:00,
2013-10-17 16:44:00,67.0,38.0,29.95,WNW,303,3.0,12.0,34,0.00,,,0.00,,2013-10-17 21:44:00,
2013-10-17 16:54:00,67.0,38.0,29.95,North,9,6.0,11.0,35,0.00,,,0.00,,2013-10-17 21:54:00,
2013-10-17 17:14:00,66.0,39.0,29.95,NW,322,4.0,15.0,37,0.00,,,0.00,,2013-10-17 22:14:00,
2013-10-17 17:24:00,66.0,40.0,29.95,North,355,1.0,12.0,38,0.00,,,0.00,,2013-10-17 22:24:00,
2013-10-17 17:43:00,66.0,40.0,29.95,North,5,3.0,9.0,38,0.00,,,0.00,,2013-10-17 22:43:00,
2013-10-17 17:53:00,66.0,39.0,29.95,NNW,333,5.0,10.0,37,0.00,,,0.00,,2013-10-17 22:53:00,
2013-10-17 18:13:00,65.0,37.0,29.95,North,355,1.0,10.0,36,0.00,,,0.00,,2013-10-17 23:13:00,
2013-10-17 18:22:00,64.0,39.0,29.96,North,355,0.0,7.0,40,0.00,,,0.00,,2013-10-17 23:22:00,
2013-10-17 18:43:00,62.0,37.0,29.96,NNE,20,2.0,10.0,40,0.00,,,0.00,,2013-10-17 23:43:00,
2013-10-17 18:53:00,61.0,38.0,29.96,North,9,2.0,7.0,42,0.00,,,0.00,,2013-10-17 23:53:00,
2013-10-17 19:12:00,60.0,38.0,29.97,NW,315,1.0,5.0,44,0.00,,,0.00,,2013-10-18 00:12:00,
2013-10-17 19:22:00,58.0,38.0,29.98,NNW,341,1.0,4.0,47,0.00,,,0.00,,2013-10-18 00:22:00,
2013-10-17 19:42:00,57.0,38.0,29.99,NNW,342,0.0,3.0,49,0.00,,,0.00,,2013-10-18 00:42:00,
2013-10-17 19:52:00,55.0,38.0,29.99,North,351,0.0,2.0,52,0.00,,,0.00,,2013-10-18 00:52:00,
2013-10-17 20:12:00,54.0,38.0,30.00,North,350,0.0,0.0,55,0.00,,,0.00,,2013-10-18 01:12:00,
2013-10-17 20:21:00,53.0,38.0,30.01,NNW,327,0.0,4.0,57,0.00,,,0.00,,2013-10-18 01:21:00,
2013-10-17 20:42:00,54.0,40.0,30.01,NNW,337,2.0,12.0,59,0.00,,,0.00,,2013-10-18 01:42:00,
2013-10-17 20:52:00,54.0,40.0,30.02,NNW,329,1.0,7.0,60,0.00,,,0.00,,2013-10-18 01:52:00,
2013-10-17 21:11:00,52.0,39.0,30.03,NNE,27,1.0,5.0,62,0.00,,,0.00,,2013-10-18 02:11:00,
2013-10-17 21:22:00,51.0,39.0,30.05,NNE,28,1.0,5.0,64,0.00,,,0.00,,2013-10-18 02:22:00,
2013-10-17 21:42:00,51.0,40.0,30.06,NNW,328,0.0,7.0,65,0.00,,,0.00,,2013-10-18 02:42:00,
2013-10-17 21:52:00,50.0,39.0,30.06,North,355,1.0,7.0,67,0.00,,,0.00,,2013-10-18 02:52:00,
2013-10-17 22:11:00,49.0,39.0,30.06,NNW,348,1.0,5.0,68,0.00,,,0.00,,2013-10-18 03:11:00,
2013-10-17 22:22:00,49.0,39.0,30.07,North,355,1.0,6.0,69,0.00,,,0.00,,2013-10-18 03:22:00,
2013-10-17 22:54:00,48.0,38.0,30.08,NNW,332,0.0,6.0,69,0.00,,,0.00,,2013-10-18 03:54:00,
2013-10-17 23:14:00,47.0,38.0,30.08,NW,323,1.0,5.0,70,0.00,,,0.00,,2013-10-18 04:14:00,
2013-10-17 23:24:00,46.0,37.0,30.09,North,360,1.0,6.0,72,0.00,,,0.00,,2013-10-18 04:24:00,
2013-10-17 23:53:00,45.0,37.0,30.09,NNW,344,0.0,5.0,73,0.00,,,0.00,,2013-10-18 04:53:00,